FW0246 Weather Reports


Display with metric or nautical units.
time (UTC)temp
F
wind
direction
speed
MPH
gust
MPH
rain 1hr
in
rain 24hr
in
rain mn
in
humidity
%
barometer
mb
20260504140903 58 0 0.0 0.0 0.01 0.03 0.03 84 1014.0
20260504081803 60 239 1.0 2.0 0.00 0.02 0.01 82 1014.5
20260504080903 59 238 1.0 2.0 0.00 0.02 0.01 80 1014.5
20260504080218 59 236 1.0 2.0 0.00 0.02 0.01 81 1014.5
20260504050003 42 0 0.0 0.0 0.00 0.02 0.01 97 1014.1
20260504045403 42 0 0.0 0.0 0.00 0.02 0.01 97 1014.1
20260504043603 42 0 0.0 0.0 0.00 0.02 0.01 97 1014.0
20260504042703 42 0 0.0 0.0 0.00 0.02 0.01 97 1014.0
20260504041803 42 0 0.0 0.0 0.00 0.02 0.01 97 1014.0
20260504041119 42 0 0.0 0.0 0.00 0.02 0.01 96 1014.0
20260504040003 42 0 0.0 0.0 0.00 0.02 0.01 96 1014.1
20260504035403 42 0 0.0 0.0 0.00 0.02 0.01 96 1013.8
20260504034503 42 0 0.0 0.0 0.00 0.02 0.01 97 1013.8
20260504033603 42 0 0.0 0.0 0.00 0.02 0.01 96 1013.9
20260504032703 42 0 0.0 0.0 0.01 0.02 0.01 97 1013.8
20260504031803 42 0 0.0 0.0 0.01 0.02 0.01 96 1013.9
20260504030903 42 0 0.0 0.0 0.01 0.02 0.01 96 1014.0
20260504030003 42 0 0.0 0.0 0.01 0.02 0.01 96 1014.0
20260504025403 42 0 0.0 0.0 0.01 0.02 0.01 96 1014.1
20260504023603 43 0 0.0 0.0 0.01 0.02 0.01 96 1014.0
20260504022703 43 0 0.0 0.0 0.00 0.02 0.00 96 1014.0
20260504021803 43 0 0.0 0.0 0.00 0.02 0.00 96 1014.1
20260504020903 43 0 0.0 0.0 0.00 0.02 0.00 96 1014.2
20260504020003 43 0 0.0 0.0 0.00 0.02 0.00 96 1014.2
20260504015403 43 0 0.0 0.0 0.00 0.02 0.00 96 1014.1
20260504014503 44 0 0.0 0.0 0.00 0.02 0.00 96 1014.2
20260504012920 44 0 0.0 0.0 0.00 0.02 0.00 96 1014.2
20260504011803 44 0 0.0 0.0 0.00 0.02 0.00 96 1014.3
20260504010903 44 0 0.0 0.0 0.00 0.02 0.00 96 1014.2
20260504010003 44 0 0.0 0.0 0.00 0.02 0.00 95 1014.3
20260504005403 45 0 0.0 0.0 0.00 0.02 0.00 96 1014.3
20260504004503 45 0 0.0 0.0 0.00 0.02 0.00 96 1014.3
20260504002703 45 0 0.0 0.0 0.00 0.02 0.00 95 1014.0
20260504001803 45 0 0.0 0.0 0.00 0.02 0.00 96 1014.1
20260504001118 45 0 0.0 0.0 0.00 0.02 0.00 96 1014.2
20260504000003 46 0 0.0 0.0 0.00 0.02 0.00 96 1014.1
20260503235403 45 0 0.0 0.0 0.00 0.02 0.00 95 1013.9
20260503234503 46 0 0.0 0.0 0.00 0.02 0.00 95 1014.0
20260503233603 46 0 0.0 0.0 0.00 0.02 0.00 95 1013.9
20260503232919 46 0 0.0 0.0 0.00 0.02 0.00 95 1014.0
20260503231803 46 0 0.0 0.0 0.00 0.02 0.00 95 1014.1
20260503230903 46 0 0.0 0.0 0.00 0.02 0.00 95 1014.1
20260503230217 46 0 0.0 0.0 0.00 0.02 0.00 95 1014.3
20260503225616 46 0 0.0 0.0 0.00 0.02 0.00 94 1014.3
20260503224503 47 0 0.0 0.0 0.00 0.02 0.00 95 1014.2
20260503223819 47 0 0.0 0.0 0.00 0.02 0.00 95 1014.3
20260503222703 47 0 0.0 0.0 0.00 0.02 0.00 94 1014.1
20260503221803 48 0 0.0 0.0 0.00 0.02 0.00 94 1014.0
20260503220903 48 0 0.0 0.0 0.00 0.02 0.00 94 1013.9
20260503220003 48 0 0.0 0.0 0.00 0.02 0.00 94 1014.1
20260503215403 48 0 0.0 0.0 0.00 0.02 0.02 93 1014.1
20260503214719 48 0 0.0 0.0 0.00 0.02 0.02 94 1013.8
20260503213603 49 0 0.0 0.0 0.00 0.02 0.02 94 1013.7
20260503212703 49 0 0.0 0.0 0.00 0.02 0.02 93 1013.8
20260503211803 49 0 0.0 0.0 0.00 0.02 0.02 93 1013.9
20260503210903 50 0 0.0 0.0 0.00 0.02 0.02 92 1013.8
20260503210003 50 0 0.0 0.0 0.00 0.02 0.02 92 1013.8
20260503205403 51 0 0.0 0.0 0.00 0.02 0.02 92 1013.8
20260503204719 51 0 0.0 0.0 0.00 0.02 0.02 92 1013.8
20260503203603 51 0 0.0 0.0 0.00 0.02 0.02 92 1013.9
20260503202917 52 0 0.0 0.0 0.00 0.02 0.02 91 1013.8
20260503202017 52 0 0.0 0.0 0.00 0.02 0.02 91 1013.8
20260503201116 53 0 0.0 0.0 0.00 0.02 0.02 91 1013.8
20260503200215 53 0 0.0 0.0 0.00 0.02 0.02 90 1014.0
20260503195403 54 0 0.0 1.0 0.00 0.02 0.02 90 1013.9
20260503194503 54 0 0.0 0.0 0.00 0.02 0.02 88 1014.0
20260503193603 55 0 0.0 0.0 0.00 0.02 0.02 88 1013.8
20260503192703 56 0 0.0 0.0 0.00 0.02 0.02 87 1013.8
20260503191803 57 231 0.0 1.0 0.00 0.02 0.02 85 1013.7
20260503191116 58 0 0.0 0.0 0.00 0.02 0.02 85 1013.8
20260503190003 58 0 0.0 0.0 0.00 0.02 0.02 85 1013.7
20260503185404 58 0 0.0 0.0 0.00 0.02 0.02 84 1013.8
20260503184505 59 0 0.0 0.0 0.00 0.02 0.02 84 1013.7
20260503183603 59 0 0.0 0.0 0.00 0.02 0.02 84 1013.6
20260503182703 59 0 0.0 0.0 0.00 0.02 0.02 83 1013.6
20260503181803 59 0 0.0 0.0 0.00 0.02 0.02 81 1013.6
20260503180903 59 215 0.0 2.0 0.00 0.02 0.02 82 1013.4
20260503180003 59 213 0.0 1.0 0.00 0.02 0.02 82 1013.4
20260503174503 60 213 0.0 2.0 0.00 0.02 0.02 80 1013.2
20260503173603 60 0 0.0 0.0 0.00 0.02 0.02 82 1013.4
20260503172703 60 0 0.0 0.0 0.00 0.02 0.02 81 1013.3
20260503172015 60 0 0.0 0.0 0.00 0.02 0.02 81 1013.4